Regional Weather Roundup
Issued by NWS

Home | Current Version | Previous Version | Text Only | Print | Product List | Glossary On
Versions: 1 2 3 4 5 6 7 8 9 10 11 12 13 14 15 16 17 18 19 20 21 22 23 24 25 26 27 28 29 30 31 32 33 34 35 36 37 38 39 40 41 42 43 44 45 46 47 48 49 50
000
ASUS43 KIND 250309
RWRIN

WEATHER ROUNDUP FOR INDIANA
NATIONAL WEATHER SERVICE INDIANAPOLIS IN
1000 PM EST FRI FEB 24 2017

NOTE: "FAIR" INDICATES FEW OR NO CLOUDS BELOW 12,000 FEET WITH NO
SIGNIFICANT WEATHER AND/OR OBSTRUCTIONS TO VISIBILITY.

* - STATION DOES NOT REPORT WEATHER SUCH AS PRECIPITATION OR FOG.

+ - STATION NOT QUALITY CONTROLLED BY THE NATIONAL WEATHER SERVICE.
    USE DATA WITH CAUTION...ESPECIALLY DEWPOINT AND RELATIVE
    HUMIDITY OBSERVATIONS.

INZ001>003-010>013-019-020-250400-
NORTHWEST INDIANA

CITY           SKY/WX    TMP DP  RH WIND       PRES   REMARKS
GARY /AIRPORT/ MOCLDY    43  34  70 W12       29.59R
KNOX *+        CLOUDY    41  21  45 W22G29    29.59R
LA PORTE +     CLOUDY    38  37  97 W5        29.59R FOG
MICHIGAN CITY+ CLOUDY    36  36 100 CALM      29.59R FOG
MONTICELLO +   MOCLDY    43  37  80 W12G17    29.61S
RENSSELAER +   PTCLDY    41  36  81 W10       29.61S
VALPARAISO     CLOUDY    43  37  79 W17G28    29.59R

$$

LMZ046-743>745-250400-
SOUTHERN LAKE MICHIGAN

STATION/POSITION TIME  TEMP    WIND        PRES    WAVE
                       AIR SEA DIR/SP/G            HT
                 (UTC) (F)     (DEG/KT/KT) (MB)    (FT)
BURNS HARBOR     0240   41     260/ 14/ 20 1002.4R
MICHIGAN CITY    0240   36     230/  6/  7   N/A

$$

INZ004-005-014>016-021>024-250400-
NORTH CENTRAL INDIANA

CITY           SKY/WX    TMP DP  RH WIND       PRES   REMARKS
GOSHEN         CLOUDY    44  39  82 W18G24    29.56R
LOGANSPORT +   CLOUDY    43  37  81 W17G24    29.62R
PERU/GRISSOM   CLOUDY    44  40  88 W23G30    29.60R
ROCHESTER +    CLOUDY    45  37  76 W16G25    29.60R
SOUTH BEND     CLOUDY    38  37  97 NW12      29.56R
WARSAW +       CLOUDY    45  43  93 W13       29.55F

$$

INZ006>009-017-018-025>027-250400-
NORTHEAST INDIANA

CITY           SKY/WX    TMP DP  RH WIND       PRES   REMARKS
ANGOLA *+      CLOUDY    46  41  81 W14       29.53R
AUBURN +       DRIZZLE   48  45  87 W14G21    29.53R
FORT WAYNE     CLOUDY    49  45  86 W18       29.53R
HUNTINGTON +   CLOUDY    47  45  94 W13G21    29.55S
KENDALLVILLE + CLOUDY    46  43  92 W18G32    29.54R

$$

INZ028-029-035-036-043>045-051>053-250400-
WEST CENTRAL INDIANA

CITY           SKY/WX    TMP DP  RH WIND       PRES   REMARKS
LAFAYETTE      CLOUDY    43  37  79 W10       29.63R
TERRE HAUTE    CLOUDY    47  36  65 W12G21    29.68R

$$

INZ030>032-037>040-046>048-054>057-064-065-250400-
CENTRAL INDIANA

CITY           SKY/WX    TMP DP  RH WIND       PRES   REMARKS
CP ATTERBURY + MOCLDY    50  45  81 W8        29.64R
COLUMBUS       MOCLDY    50  48  93 W12G20    29.63R
FRANKFORT +    CLOUDY    46  40  78 W16       29.65R
GREENWOOD *+   CLOUDY    49  43  78 W10G23    29.63R
INDIANAPOLIS   CLOUDY    48  42  80 W15       29.64S
-EAGLE CREEK   CLOUDY    48  42  80 W10       29.62R
KOKOMO +       CLOUDY    44  39  82 W23G31    29.62R
MARION +       CLOUDY    46  42  87 W23G32    29.61R
MT COMFORT *+  CLOUDY    48  43  81 W16G28    29.63R
SHELBYVILLE    CLOUDY    52  44  74 W18       29.61R
ZIONSVILLE +   CLOUDY    45  40  84 W13G22    29.62R

$$

INZ033-034-041-042-049-050-058-059-250400-
EAST CENTRAL INDIANA

CITY           SKY/WX    TMP DP  RH WIND       PRES   REMARKS
MUNCIE         CLOUDY    51  47  86 W14       29.59R

$$

INZ060-061-067>069-081>083-085>088-250400-
SOUTHWEST INDIANA

CITY           SKY/WX    TMP DP  RH WIND       PRES   REMARKS
EVANSVILLE     CLOUDY    52  48  86 W3        29.69S
HUNTINGBURG *+ CLOUDY    50  45  81 NW6       29.68R
WASHINGTON +   CLOUDY    51  48  89 CALM      29.68R

$$

INZ062-063-066-070>080-084-089>092-250400-
SOUTH CENTRAL AND SOUTHEAST INDIANA

CITY           SKY/WX    TMP DP  RH WIND       PRES   REMARKS
BLOOMINGTON    CLOUDY    50  44  80 NW10G17   29.64R
MADISON *+     CLOUDY    61  54  77 W14G24    29.63R
NORTH VERNON + MOCLDY    59  55  88 W18G26    29.61R

$$





USA.gov is the U.S. government's official web portal to all federal, state and local government web resources and services.